| time (UTC) | temp F | wind direction | speed knots | gust knots | rain 1hr in | rain 24hr in | rain mn in | humidity % | barometer mb |
| 20260831172540 | 65 | 120 | 2.6 | 4.3 | 0.12 | 0.19 | 0.19 | 95 | 1021.2 |
| 20260831172035 | 65 | 124 | 1.7 | 2.6 | 0.19 | 0.19 | 0.19 | 95 | 1021.4 |
| 20260831171531 | 65 | 130 | 1.7 | 1.7 | 0.12 | 0.17 | 0.17 | 95 | 1021.3 |
| 20260831171027 | 65 | 104 | 2.6 | 2.6 | 0.12 | 0.16 | 0.16 | 95 | 1021.3 |
| 20260831170523 | 65 | 117 | 1.7 | 2.6 | 0.12 | 0.15 | 0.15 | 95 | 1021.4 |
| 20260831170021 | 65 | 129 | 2.6 | 2.6 | 0.05 | 0.14 | 0.14 | 95 | 1021.3 |
| 20260831165521 | 65 | 121 | 3.5 | 4.3 | 0.07 | 0.13 | 0.13 | 95 | 1021.3 |
| 20260831165018 | 65 | 121 | 1.7 | 1.7 | 0.07 | 0.13 | 0.13 | 95 | 1021.6 |
| 20260831164513 | 65 | 117 | 1.7 | 2.6 | 0.05 | 0.12 | 0.12 | 95 | 1021.6 |
| 20260831164009 | 65 | 111 | 2.6 | 4.3 | 0.12 | 0.12 | 0.12 | 95 | 1021.6 |
| 20260831163508 | 65 | 123 | 2.6 | 4.3 | 0.12 | 0.11 | 0.11 | 95 | 1021.6 |
| 20260831163004 | 65 | 130 | 0.9 | 1.7 | 0.24 | 0.10 | 0.10 | 95 | 1021.8 |
| 20260831162458 | 65 | 127 | 2.6 | 4.3 | 0.26 | 0.09 | 0.09 | 95 | 1021.6 |
| 20260831161955 | 65 | 129 | 2.6 | 2.6 | 0.19 | 0.06 | 0.06 | 95 | 1021.5 |
| 20260831161453 | 65 | 127 | 1.7 | 1.7 | 0.12 | 0.05 | 0.05 | 95 | 1021.7 |
| 20260831160948 | 66 | 157 | 0.0 | 0.9 | 0.05 | 0.03 | 0.03 | 94 | 1021.9 |
| 20260831160447 | 66 | 163 | 0.0 | 0.0 | 0.17 | 0.03 | 0.03 | 93 | 1022.0 |
| 20260831155948 | 66 | 164 | 0.0 | 0.0 | 0.12 | 0.02 | 0.02 | 92 | 1022.0 |
| 20260831155443 | 66 | 152 | 0.0 | 0.0 | 0.00 | 0.00 | 0.00 | 91 | 1021.7 |
| 20260831154938 | 66 | 128 | 1.7 | 1.7 | 0.00 | 0.00 | 0.00 | 91 | 1022.0 |
| 20260831154435 | 66 | 134 | 1.7 | 1.7 | 0.00 | 0.00 | 0.00 | 90 | 1021.8 |
| 20260831153933 | 66 | 138 | 0.9 | 0.9 | 0.00 | 0.00 | 0.00 | 90 | 1021.6 |
| 20260831153429 | 66 | 133 | 0.9 | 1.7 | 0.00 | 0.00 | 0.00 | 90 | 1022.0 |
| 20260831152925 | 66 | 128 | 0.9 | 0.9 | 0.00 | 0.00 | 0.00 | 90 | 1021.9 |
| 20260831152420 | 66 | 106 | 0.9 | 1.7 | 0.00 | 0.00 | 0.00 | 90 | 1021.8 |
| 20260831151915 | 66 | 118 | 1.7 | 1.7 | 0.00 | 0.00 | 0.00 | 91 | 1021.7 |
| 20260831151414 | 66 | 118 | 1.7 | 2.6 | 0.00 | 0.00 | 0.00 | 91 | 1021.9 |
| 20260831150910 | 66 | 103 | 2.6 | 4.3 | 0.00 | 0.00 | 0.00 | 91 | 1021.5 |
| 20260831150405 | 66 | 155 | 2.6 | 2.6 | 0.00 | 0.00 | 0.00 | 91 | 1021.6 |
| 20260831145904 | 66 | 139 | 1.7 | 1.7 | 0.00 | 0.00 | 0.00 | 91 | 1021.5 |
| 20260831145401 | 66 | 126 | 1.7 | 2.6 | 0.00 | 0.00 | 0.00 | 92 | 1021.5 |
| 20260831144856 | 65 | 141 | 2.6 | 4.3 | 0.00 | 0.00 | 0.00 | 92 | 1021.6 |
| 20260831144352 | 65 | 124 | 0.9 | 1.7 | 0.00 | 0.00 | 0.00 | 92 | 1021.5 |
| 20260831143847 | 65 | 122 | 2.6 | 2.6 | 0.00 | 0.00 | 0.00 | 93 | 1021.6 |
| 20260831143342 | 65 | 177 | 2.6 | 4.3 | 0.00 | 0.00 | 0.00 | 94 | 1021.7 |
| 20260831142837 | 64 | 131 | 2.6 | 2.6 | 0.00 | 0.00 | 0.00 | 95 | 1021.7 |
| 20260831142332 | 64 | 132 | 1.7 | 2.6 | 0.00 | 0.00 | 0.00 | 95 | 1021.4 |
| 20260831141832 | 63 | 113 | 2.6 | 2.6 | 0.00 | 0.00 | 0.00 | 95 | 1021.4 |
| 20260831141327 | 63 | 104 | 2.6 | 4.3 | 0.00 | 0.00 | 0.00 | 95 | 1021.3 |
| 20260831140822 | 63 | 110 | 2.6 | 4.3 | 0.00 | 0.00 | 0.00 | 95 | 1021.5 |
| 20260831140316 | 63 | 171 | 2.6 | 2.6 | 0.00 | 0.00 | 0.00 | 95 | 1021.6 |
| 20260831135814 | 63 | 169 | 0.9 | 1.7 | 0.00 | 0.00 | 0.00 | 95 | 1021.6 |
| 20260831135310 | 63 | 125 | 2.6 | 2.6 | 0.00 | 0.00 | 0.00 | 95 | 1021.6 |
| 20260831134805 | 62 | 146 | 0.0 | 0.0 | 0.00 | 0.00 | 0.00 | 95 | 1021.6 |
| 20260831134302 | 63 | 164 | 0.0 | 0.0 | 0.00 | 0.00 | 0.00 | 95 | 1021.9 |
| 20260831133800 | 62 | 155 | 0.0 | 0.0 | 0.00 | 0.00 | 0.00 | 95 | 1021.6 |
| 20260831133255 | 62 | 134 | 0.0 | 0.0 | 0.00 | 0.00 | 0.00 | 95 | 1021.8 |
| 20260831132750 | 62 | 163 | 0.0 | 0.0 | 0.00 | 0.00 | 0.00 | 95 | 1021.9 |
| 20260831132245 | 62 | 167 | 0.0 | 0.0 | 0.00 | 0.00 | 0.00 | 95 | 1021.9 |
| 20260831131744 | 62 | 155 | 0.0 | 0.0 | 0.00 | 0.00 | 0.00 | 95 | 1022.0 |
| 20260831131241 | 62 | 167 | 0.0 | 0.9 | 0.00 | 0.00 | 0.00 | 95 | 1022.1 |
| 20260831130736 | 61 | 167 | 0.0 | 0.0 | 0.00 | 0.00 | 0.00 | 95 | 1021.9 |
| 20260831130231 | 62 | 167 | 0.0 | 0.0 | 0.00 | 0.00 | 0.00 | 95 | 1021.8 |
| 20260831125730 | 61 | 166 | 0.0 | 0.0 | 0.00 | 0.00 | 0.00 | 95 | 1021.8 |
| 20260831125226 | 61 | 167 | 0.0 | 0.0 | 0.00 | 0.00 | 0.00 | 95 | 1021.6 |
| 20260831124720 | 60 | 152 | 0.0 | 0.0 | 0.00 | 0.00 | 0.00 | 95 | 1021.6 |
| 20260831124217 | 60 | 167 | 0.0 | 0.0 | 0.00 | 0.00 | 0.00 | 95 | 1021.7 |
| 20260831123716 | 60 | 167 | 0.0 | 0.0 | 0.00 | 0.00 | 0.00 | 95 | 1021.9 |
| 20260831123216 | 60 | 162 | 0.0 | 0.0 | 0.00 | 0.00 | 0.00 | 95 | 1021.9 |
| 20260831122710 | 60 | 161 | 0.0 | 0.0 | 0.00 | 0.00 | 0.00 | 95 | 1021.9 |
| 20260831122206 | 60 | 162 | 0.0 | 0.0 | 0.00 | 0.00 | 0.00 | 95 | 1022.0 |
| 20260831121705 | 60 | 174 | 0.0 | 0.9 | 0.00 | 0.00 | 0.00 | 95 | 1022.0 |
| 20260831121202 | 60 | 165 | 0.0 | 0.0 | 0.00 | 0.00 | 0.00 | 95 | 1022.1 |
| 20260831120657 | 60 | 165 | 0.0 | 0.0 | 0.00 | 0.00 | 0.00 | 95 | 1022.2 |
| 20260831120151 | 59 | 159 | 0.0 | 0.0 | 0.00 | 0.00 | 0.00 | 95 | 1022.4 |
| 20260831115647 | 59 | 159 | 0.0 | 0.0 | 0.00 | 0.00 | 0.00 | 95 | 1022.3 |
| 20260831115143 | 59 | 147 | 0.0 | 0.0 | 0.00 | 0.00 | 0.00 | 95 | 1022.2 |
| 20260831114642 | 59 | 148 | 0.0 | 0.0 | 0.00 | 0.00 | 0.00 | 95 | 1022.1 |
| 20260831114136 | 59 | 166 | 0.0 | 0.0 | 0.00 | 0.00 | 0.00 | 95 | 1022.2 |
| 20260831113631 | 59 | 166 | 0.0 | 0.0 | 0.00 | 0.00 | 0.00 | 95 | 1021.9 |
| 20260831113126 | 59 | 167 | 0.0 | 0.0 | 0.00 | 0.00 | 0.00 | 95 | 1021.9 |
| 20260831112625 | 59 | 143 | 0.0 | 0.0 | 0.00 | 0.00 | 0.00 | 95 | 1021.8 |
| 20260831112120 | 59 | 163 | 0.0 | 0.0 | 0.00 | 0.00 | 0.00 | 95 | 1021.8 |
| 20260831111616 | 59 | 165 | 0.0 | 0.0 | 0.00 | 0.00 | 0.00 | 95 | 1021.8 |
| 20260831111112 | 59 | 184 | 0.0 | 0.0 | 0.00 | 0.00 | 0.00 | 95 | 1022.0 |
| 20260831110607 | 59 | 175 | 0.0 | 0.0 | 0.00 | 0.00 | 0.00 | 95 | 1021.6 |
| 20260831105601 | 59 | 159 | 0.0 | 0.0 | 0.00 | 0.00 | 0.00 | 95 | 1021.5 |
| 20260831105056 | 59 | 156 | 0.0 | 0.0 | 0.00 | 0.00 | 0.00 | 95 | 1021.7 |
| 20260831104552 | 59 | 149 | 0.0 | 0.0 | 0.00 | 0.00 | 0.00 | 95 | 1021.6 |
| 20260831104048 | 59 | 148 | 0.0 | 0.0 | 0.00 | 0.00 | 0.00 | 95 | 1021.4 |
| 20260831103543 | 59 | 158 | 0.0 | 0.0 | 0.00 | 0.00 | 0.00 | 95 | 1021.5 |
| 20260831103033 | 59 | 118 | 0.0 | 0.0 | 0.00 | 0.00 | 0.00 | 95 | 1021.3 |
| 20260831102527 | 59 | 153 | 0.0 | 0.0 | 0.00 | 0.00 | 0.00 | 95 | 1021.4 |
| 20260831102022 | 59 | 151 | 0.0 | 0.0 | 0.00 | 0.00 | 0.00 | 95 | 1021.2 |
| 20260831101517 | 59 | 140 | 0.0 | 0.0 | 0.00 | 0.00 | 0.00 | 95 | 1021.3 |
| 20260831101014 | 59 | 144 | 0.0 | 0.0 | 0.00 | 0.00 | 0.00 | 95 | 1021.5 |
| 20260831100509 | 59 | 144 | 0.0 | 0.0 | 0.00 | 0.00 | 0.00 | 95 | 1021.3 |
| 20260831100005 | 59 | 144 | 0.0 | 0.0 | 0.00 | 0.00 | 0.00 | 95 | 1021.4 |
| 20260831095503 | 59 | 144 | 0.0 | 0.0 | 0.00 | 0.00 | 0.00 | 95 | 1021.4 |
| 20260831094958 | 59 | 145 | 0.0 | 0.0 | 0.00 | 0.00 | 0.00 | 95 | 1021.3 |
| 20260831094454 | 59 | 134 | 0.0 | 0.0 | 0.00 | 0.00 | 0.00 | 95 | 1021.3 |
| 20260831093950 | 59 | 144 | 0.0 | 0.0 | 0.00 | 0.00 | 0.00 | 95 | 1021.4 |
| 20260831093445 | 59 | 161 | 0.0 | 0.0 | 0.00 | 0.00 | 0.00 | 95 | 1021.4 |
| 20260831092941 | 59 | 163 | 0.0 | 0.0 | 0.00 | 0.00 | 0.00 | 95 | 1021.3 |
| 20260831092437 | 59 | 162 | 0.0 | 0.0 | 0.00 | 0.00 | 0.00 | 95 | 1021.4 |
| 20260831091932 | 59 | 163 | 0.0 | 0.0 | 0.00 | 0.00 | 0.00 | 95 | 1021.4 |
| 20260831091427 | 59 | 156 | 0.0 | 0.0 | 0.00 | 0.00 | 0.00 | 95 | 1021.4 |
| 20260831090922 | 59 | 163 | 0.0 | 0.0 | 0.00 | 0.00 | 0.00 | 95 | 1021.4 |
| 20260831090418 | 59 | 165 | 0.0 | 0.0 | 0.00 | 0.00 | 0.00 | 95 | 1021.3 |
| 20260831085914 | 59 | 166 | 0.0 | 0.0 | 0.00 | 0.00 | 0.00 | 95 | 1021.6 |
| 20260831085409 | 59 | 166 | 0.0 | 0.0 | 0.00 | 0.00 | 0.00 | 95 | 1021.5 |
| 20260831084909 | 59 | 146 | 0.0 | 0.0 | 0.00 | 0.00 | 0.00 | 95 | 1021.3 |
| 20260831084405 | 59 | 140 | 0.0 | 0.0 | 0.00 | 0.00 | 0.00 | 95 | 1021.3 |
| 20260831083901 | 59 | 137 | 0.0 | 0.0 | 0.00 | 0.00 | 0.00 | 95 | 1021.3 |
| 20260831083356 | 59 | 128 | 0.0 | 0.0 | 0.00 | 0.00 | 0.00 | 95 | 1021.4 |
| 20260831082855 | 59 | 165 | 0.0 | 0.0 | 0.00 | 0.00 | 0.00 | 95 | 1021.4 |
| 20260831082349 | 59 | 165 | 0.0 | 0.0 | 0.00 | 0.00 | 0.00 | 95 | 1021.6 |
| 20260831081845 | 59 | 165 | 0.0 | 0.0 | 0.00 | 0.00 | 0.00 | 95 | 1021.4 |
| 20260831081340 | 59 | 165 | 0.0 | 0.0 | 0.00 | 0.00 | 0.00 | 95 | 1021.3 |
| 20260831080837 | 60 | 163 | 0.0 | 0.0 | 0.00 | 0.00 | 0.00 | 95 | 1021.3 |
| 20260831080336 | 60 | 141 | 0.0 | 0.0 | 0.00 | 0.00 | 0.00 | 95 | 1021.1 |
| 20260831075832 | 60 | 141 | 0.0 | 0.0 | 0.00 | 0.00 | 0.00 | 95 | 1021.2 |
| 20260831075327 | 60 | 140 | 0.0 | 0.0 | 0.00 | 0.00 | 0.00 | 95 | 1021.3 |
| 20260831074822 | 60 | 141 | 0.0 | 0.0 | 0.00 | 0.00 | 0.00 | 95 | 1021.4 |
| 20260831074321 | 60 | 147 | 0.0 | 0.0 | 0.00 | 0.00 | 0.00 | 95 | 1021.2 |
| 20260831073817 | 60 | 147 | 0.0 | 0.0 | 0.00 | 0.00 | 0.00 | 95 | 1021.3 |
| 20260831073316 | 60 | 173 | 0.0 | 0.0 | 0.00 | 0.00 | 0.00 | 95 | 1021.2 |
| 20260831072811 | 60 | 154 | 0.0 | 0.0 | 0.00 | 0.00 | 0.00 | 95 | 1021.2 |
| 20260831072307 | 60 | 154 | 0.0 | 0.0 | 0.00 | 0.00 | 0.00 | 95 | 1021.3 |
| 20260831071803 | 60 | 154 | 0.0 | 0.0 | 0.00 | 0.00 | 0.00 | 95 | 1021.1 |
| 20260831071257 | 60 | 154 | 0.0 | 0.0 | 0.00 | 0.00 | 0.00 | 95 | 1021.2 |
| 20260831070757 | 60 | 153 | 0.0 | 0.0 | 0.00 | 0.00 | 0.00 | 95 | 1021.2 |
| 20260831070256 | 60 | 154 | 0.0 | 0.0 | 0.00 | 0.00 | 0.00 | 95 | 1021.3 |
| 20260831065755 | 60 | 154 | 0.0 | 0.0 | 0.00 | 0.00 | 0.00 | 95 | 1021.2 |
| 20260831065253 | 60 | 154 | 0.0 | 0.0 | 0.00 | 0.00 | 0.00 | 95 | 1021.3 |
| 20260831064748 | 60 | 154 | 0.0 | 0.0 | 0.00 | 0.00 | 0.00 | 95 | 1021.1 |
| 20260831064243 | 59 | 155 | 0.0 | 0.0 | 0.00 | 0.00 | 0.00 | 95 | 1021.1 |
| 20260831063740 | 59 | 156 | 0.0 | 0.0 | 0.00 | 0.00 | 0.00 | 95 | 1021.0 |
| 20260831063239 | 59 | 157 | 0.0 | 0.0 | 0.00 | 0.00 | 0.00 | 95 | 1021.4 |
| 20260831062734 | 59 | 142 | 0.0 | 0.0 | 0.00 | 0.00 | 0.00 | 95 | 1021.1 |
| 20260831062229 | 59 | 142 | 0.0 | 0.0 | 0.00 | 0.00 | 0.00 | 95 | 1021.3 |
| 20260831061727 | 59 | 142 | 0.0 | 0.0 | 0.00 | 0.00 | 0.00 | 95 | 1021.4 |
| 20260831061222 | 59 | 154 | 0.0 | 0.0 | 0.00 | 0.00 | 0.00 | 95 | 1021.6 |
| 20260831060718 | 59 | 157 | 0.0 | 0.0 | 0.00 | 0.00 | 0.00 | 95 | 1021.4 |
| 20260831060213 | 59 | 139 | 0.0 | 0.0 | 0.00 | 0.00 | 0.00 | 95 | 1021.8 |
| 20260831055713 | 59 | 139 | 0.0 | 0.0 | 0.00 | 0.00 | 0.00 | 95 | 1021.8 |
| 20260831055207 | 59 | 139 | 0.0 | 0.0 | 0.00 | 0.00 | 0.00 | 95 | 1022.0 |
| 20260831054702 | 59 | 139 | 0.0 | 0.0 | 0.00 | 0.00 | 0.00 | 95 | 1021.7 |
| 20260831054201 | 59 | 140 | 0.0 | 0.0 | 0.00 | 0.00 | 0.00 | 95 | 1021.6 |
| 20260831053656 | 60 | 139 | 0.0 | 0.0 | 0.00 | 0.00 | 0.00 | 95 | 1021.8 |
| 20260831053154 | 60 | 131 | 0.0 | 0.0 | 0.00 | 0.00 | 0.00 | 95 | 1021.9 |
| 20260831052649 | 59 | 163 | 0.0 | 0.0 | 0.00 | 0.00 | 0.00 | 94 | 1021.9 |
| 20260831052148 | 60 | 163 | 0.0 | 0.0 | 0.00 | 0.00 | 0.00 | 94 | 1021.9 |
| 20260831051646 | 60 | 163 | 0.0 | 0.0 | 0.00 | 0.00 | 0.00 | 94 | 1021.8 |
| 20260831051145 | 60 | 167 | 0.0 | 0.0 | 0.00 | 0.00 | 0.00 | 94 | 1021.6 |
| 20260831050640 | 60 | 172 | 0.0 | 0.0 | 0.00 | 0.00 | 0.00 | 94 | 1021.9 |
| 20260831050139 | 60 | 151 | 0.0 | 0.0 | 0.00 | 0.00 | 0.00 | 94 | 1021.7 |
| 20260831045638 | 61 | 144 | 0.0 | 0.0 | 0.00 | 0.00 | 0.00 | 94 | 1021.8 |
| 20260831045133 | 61 | 134 | 0.0 | 0.0 | 0.00 | 0.00 | 0.00 | 93 | 1021.7 |
| 20260831044629 | 61 | 154 | 0.0 | 0.0 | 0.00 | 0.00 | 0.00 | 93 | 1021.6 |
| 20260831044124 | 61 | 134 | 0.0 | 0.0 | 0.00 | 0.00 | 0.00 | 93 | 1021.7 |
| 20260831043619 | 60 | 134 | 0.0 | 0.0 | 0.00 | 0.00 | 0.00 | 93 | 1021.7 |
| 20260831043109 | 61 | 134 | 0.0 | 0.0 | 0.00 | 0.00 | 0.00 | 93 | 1021.9 |
| 20260831042608 | 61 | 137 | 0.0 | 0.0 | 0.00 | 0.00 | 0.00 | 92 | 1021.8 |
| 20260831042103 | 61 | 135 | 0.0 | 0.0 | 0.00 | 0.00 | 0.00 | 92 | 1021.5 |
| 20260831041558 | 62 | 135 | 0.0 | 0.0 | 0.00 | 0.00 | 0.00 | 92 | 1021.8 |
| 20260831041057 | 62 | 135 | 0.0 | 0.0 | 0.00 | 0.00 | 0.00 | 92 | 1021.8 |
| 20260831040552 | 62 | 136 | 0.0 | 0.0 | 0.00 | 0.00 | 0.00 | 92 | 1021.7 |
| 20260831040051 | 62 | 134 | 0.0 | 0.0 | 0.00 | 0.00 | 0.00 | 92 | 1021.8 |
| 20260831035543 | 62 | 138 | 0.0 | 0.0 | 0.00 | 0.00 | 0.00 | 91 | 1021.6 |
| 20260831035039 | 62 | 138 | 0.0 | 0.0 | 0.00 | 0.00 | 0.00 | 91 | 1021.6 |
| 20260831034538 | 63 | 138 | 0.0 | 0.0 | 0.00 | 0.00 | 0.00 | 91 | 1021.8 |
| 20260831034034 | 62 | 139 | 0.0 | 0.0 | 0.00 | 0.00 | 0.00 | 91 | 1021.6 |
| 20260831033530 | 63 | 139 | 0.0 | 0.0 | 0.00 | 0.00 | 0.00 | 90 | 1021.8 |
| 20260831033025 | 63 | 139 | 0.0 | 0.0 | 0.00 | 0.00 | 0.00 | 90 | 1021.7 |
| 20260831032524 | 63 | 139 | 0.0 | 0.0 | 0.00 | 0.00 | 0.00 | 90 | 1021.7 |
| 20260831032020 | 63 | 139 | 0.0 | 0.0 | 0.00 | 0.00 | 0.00 | 90 | 1021.8 |
| 20260831031519 | 64 | 140 | 0.0 | 0.0 | 0.00 | 0.00 | 0.00 | 90 | 1021.6 |
| 20260831031019 | 64 | 140 | 0.0 | 0.0 | 0.00 | 0.00 | 0.00 | 90 | 1021.8 |
| 20260831030518 | 64 | 140 | 0.0 | 0.0 | 0.00 | 0.00 | 0.00 | 90 | 1021.7 |
| 20260831030017 | 64 | 140 | 0.0 | 0.0 | 0.00 | 0.00 | 0.00 | 90 | 1021.9 |
| 20260831025510 | 64 | 138 | 0.0 | 0.0 | 0.00 | 0.00 | 0.00 | 89 | 1021.7 |
| 20260831025005 | 64 | 160 | 0.0 | 0.0 | 0.00 | 0.00 | 0.00 | 89 | 1021.6 |
| 20260831024501 | 65 | 160 | 0.0 | 0.0 | 0.00 | 0.00 | 0.00 | 89 | 1021.7 |
| 20260831024000 | 65 | 162 | 0.0 | 0.0 | 0.00 | 0.00 | 0.00 | 89 | 1021.5 |
| 20260831023458 | 65 | 162 | 0.0 | 0.0 | 0.00 | 0.00 | 0.00 | 89 | 1021.9 |
| 20260831022953 | 65 | 151 | 0.0 | 0.0 | 0.00 | 0.00 | 0.00 | 89 | 1021.7 |
| 20260831022452 | 65 | 148 | 0.0 | 0.0 | 0.00 | 0.00 | 0.00 | 88 | 1021.7 |
| 20260831021948 | 65 | 117 | 0.0 | 0.0 | 0.00 | 0.00 | 0.00 | 88 | 1021.8 |
| 20260831021446 | 65 | 145 | 0.0 | 0.0 | 0.00 | 0.00 | 0.00 | 88 | 1022.0 |
| 20260831020942 | 65 | 145 | 0.0 | 0.0 | 0.00 | 0.00 | 0.00 | 88 | 1021.9 |
| 20260831020437 | 65 | 144 | 0.0 | 0.0 | 0.00 | 0.00 | 0.00 | 88 | 1021.7 |
| 20260831015932 | 65 | 146 | 0.0 | 0.0 | 0.00 | 0.00 | 0.00 | 88 | 1021.6 |
| 20260831015428 | 65 | 147 | 0.0 | 0.0 | 0.00 | 0.00 | 0.00 | 87 | 1021.6 |
| 20260831014922 | 65 | 147 | 0.0 | 0.0 | 0.00 | 0.00 | 0.00 | 87 | 1021.7 |
| 20260831014417 | 65 | 147 | 0.0 | 0.0 | 0.00 | 0.00 | 0.00 | 87 | 1021.5 |
| 20260831013913 | 65 | 147 | 0.0 | 0.0 | 0.00 | 0.00 | 0.00 | 86 | 1021.6 |
| 20260831013409 | 65 | 128 | 0.0 | 0.0 | 0.00 | 0.00 | 0.00 | 86 | 1021.6 |
| 20260831012903 | 65 | 181 | 0.0 | 0.0 | 0.00 | 0.00 | 0.00 | 86 | 1021.5 |
| 20260831012358 | 65 | 182 | 0.0 | 0.0 | 0.00 | 0.00 | 0.00 | 86 | 1021.5 |
| 20260831011858 | 65 | 29 | 1.7 | 1.7 | 0.00 | 0.00 | 0.00 | 86 | 1021.7 |
| 20260831011352 | 66 | 104 | 0.9 | 1.7 | 0.00 | 0.00 | 0.00 | 85 | 1021.6 |
| 20260831010848 | 66 | 138 | 0.0 | 0.0 | 0.00 | 0.00 | 0.00 | 85 | 1021.7 |
| 20260831010348 | 66 | 116 | 0.9 | 0.9 | 0.00 | 0.00 | 0.00 | 84 | 1021.7 |
| 20260831005844 | 66 | 175 | 0.0 | 0.0 | 0.00 | 0.00 | 0.00 | 84 | 1021.3 |
| 20260831005339 | 67 | 165 | 0.0 | 0.0 | 0.00 | 0.00 | 0.00 | 83 | 1021.2 |
| 20260831004834 | 67 | 139 | 0.0 | 0.0 | 0.00 | 0.00 | 0.00 | 83 | 1021.3 |
| 20260831004330 | 67 | 152 | 0.0 | 0.0 | 0.00 | 0.00 | 0.00 | 83 | 1021.0 |
| 20260831003825 | 67 | 177 | 0.0 | 0.9 | 0.00 | 0.00 | 0.00 | 83 | 1021.2 |
| 20260831003322 | 67 | 193 | 1.7 | 1.7 | 0.00 | 0.00 | 0.00 | 83 | 1021.0 |
| 20260831002820 | 67 | 182 | 0.0 | 0.9 | 0.00 | 0.00 | 0.00 | 83 | 1020.8 |
| 20260831002314 | 67 | 284 | 0.9 | 1.7 | 0.00 | 0.00 | 0.00 | 83 | 1020.4 |
| 20260831001811 | 67 | 196 | 0.9 | 0.9 | 0.00 | 0.00 | 0.00 | 82 | 1020.6 |
| 20260831001305 | 67 | 161 | 0.0 | 0.9 | 0.00 | 0.00 | 0.00 | 82 | 1020.4 |
| 20260831000803 | 67 | 141 | 0.0 | 0.9 | 0.00 | 0.00 | 0.00 | 82 | 1020.5 |
| 20260831000303 | 67 | 120 | 0.9 | 0.9 | 0.00 | 0.00 | 0.00 | 82 | 1020.4 |
| 20260830235801 | 67 | 136 | 0.0 | 0.0 | 0.00 | 0.00 | 0.00 | 81 | 1020.5 |
| 20260830235256 | 68 | 144 | 0.9 | 1.7 | 0.00 | 0.00 | 0.00 | 81 | 1020.2 |
| 20260830234751 | 68 | 179 | 0.9 | 1.7 | 0.00 | 0.00 | 0.00 | 80 | 1020.4 |
| 20260830234247 | 68 | 227 | 2.6 | 2.6 | 0.00 | 0.00 | 0.00 | 80 | 1020.3 |
| 20260830233743 | 68 | 231 | 1.7 | 1.7 | 0.00 | 0.00 | 0.00 | 80 | 1020.3 |
| 20260830233238 | 68 | 185 | 0.9 | 0.9 | 0.00 | 0.00 | 0.00 | 80 | 1020.4 |
| 20260830232734 | 68 | 191 | 1.7 | 1.7 | 0.00 | 0.00 | 0.00 | 80 | 1020.4 |
| 20260830232229 | 68 | 298 | 1.7 | 1.7 | 0.00 | 0.00 | 0.00 | 81 | 1020.3 |
| 20260830231726 | 68 | 178 | 0.9 | 0.9 | 0.00 | 0.00 | 0.00 | 81 | 1020.2 |
| 20260830231225 | 68 | 144 | 0.0 | 0.9 | 0.00 | 0.00 | 0.00 | 81 | 1020.3 |
| 20260830230720 | 68 | 174 | 0.0 | 0.0 | 0.00 | 0.00 | 0.00 | 81 | 1020.5 |
| 20260830230215 | 68 | 166 | 0.0 | 0.0 | 0.00 | 0.00 | 0.00 | 81 | 1020.4 |
| 20260830225709 | 68 | 156 | 0.0 | 0.0 | 0.00 | 0.00 | 0.00 | 80 | 1020.3 |
| 20260830225204 | 68 | 161 | 0.0 | 0.0 | 0.00 | 0.00 | 0.00 | 80 | 1020.5 |
| 20260830224703 | 69 | 176 | 0.0 | 0.9 | 0.00 | 0.00 | 0.00 | 80 | 1020.4 |
| 20260830224159 | 69 | 155 | 0.0 | 0.9 | 0.00 | 0.00 | 0.00 | 80 | 1020.3 |
| 20260830223655 | 69 | 128 | 0.9 | 0.9 | 0.00 | 0.00 | 0.00 | 79 | 1020.4 |
| 20260830223150 | 69 | 138 | 0.0 | 0.9 | 0.00 | 0.00 | 0.00 | 79 | 1020.3 |
| 20260830222644 | 69 | 162 | 0.9 | 0.9 | 0.00 | 0.00 | 0.00 | 79 | 1020.1 |
| 20260830222140 | 69 | 178 | 0.0 | 0.0 | 0.00 | 0.00 | 0.00 | 79 | 1020.3 |
| 20260830221630 | 69 | 146 | 0.0 | 0.0 | 0.00 | 0.00 | 0.00 | 79 | 1020.0 |
| 20260830221126 | 69 | 187 | 0.9 | 0.9 | 0.00 | 0.00 | 0.00 | 79 | 1020.2 |
| 20260830220621 | 69 | 155 | 0.0 | 0.0 | 0.00 | 0.00 | 0.00 | 79 | 1020.3 |
| 20260830220120 | 69 | 149 | 0.0 | 0.0 | 0.00 | 0.00 | 0.00 | 79 | 1020.2 |
| 20260830215619 | 69 | 147 | 0.0 | 0.0 | 0.00 | 0.00 | 0.00 | 78 | 1020.2 |
| 20260830215114 | 70 | 180 | 0.0 | 0.9 | 0.00 | 0.00 | 0.00 | 78 | 1020.0 |
| 20260830214609 | 70 | 156 | 0.9 | 0.9 | 0.00 | 0.00 | 0.00 | 76 | 1020.0 |
| 20260830214103 | 70 | 159 | 0.0 | 0.0 | 0.00 | 0.00 | 0.00 | 76 | 1019.8 |
| 20260830213557 | 70 | 173 | 0.0 | 0.0 | 0.00 | 0.00 | 0.00 | 75 | 1020.2 |
| 20260830213053 | 70 | 240 | 1.7 | 1.7 | 0.00 | 0.00 | 0.00 | 75 | 1020.2 |
| 20260830212549 | 70 | 176 | 0.0 | 0.9 | 0.00 | 0.00 | 0.00 | 74 | 1020.3 |
| 20260830212043 | 70 | 309 | 0.9 | 1.7 | 0.00 | 0.00 | 0.00 | 75 | 1020.1 |
| 20260830211538 | 70 | 276 | 1.7 | 2.6 | 0.00 | 0.00 | 0.00 | 75 | 1020.3 |
| 20260830211037 | 70 | 178 | 0.9 | 0.9 | 0.00 | 0.00 | 0.00 | 75 | 1020.2 |
| 20260830210532 | 70 | 179 | 0.0 | 0.0 | 0.00 | 0.00 | 0.00 | 75 | 1020.3 |
| 20260830210026 | 70 | 197 | 0.9 | 0.9 | 0.00 | 0.00 | 0.00 | 74 | 1020.5 |
| 20260830205524 | 71 | 210 | 0.9 | 0.9 | 0.00 | 0.00 | 0.00 | 73 | 1020.1 |
| 20260830205020 | 71 | 186 | 0.9 | 1.7 | 0.00 | 0.00 | 0.00 | 73 | 1020.0 |
| 20260830204518 | 71 | 187 | 0.0 | 0.0 | 0.00 | 0.00 | 0.00 | 74 | 1020.2 |
| 20260830204013 | 71 | 184 | 0.0 | 0.0 | 0.00 | 0.00 | 0.00 | 74 | 1020.2 |
| 20260830203509 | 70 | 184 | 0.0 | 0.0 | 0.00 | 0.00 | 0.00 | 74 | 1020.2 |
| 20260830203004 | 70 | 184 | 0.0 | 0.0 | 0.00 | 0.00 | 0.00 | 75 | 1020.2 |
| 20260830202458 | 70 | 210 | 0.0 | 0.0 | 0.00 | 0.00 | 0.00 | 74 | 1020.4 |
| 20260830201954 | 70 | 189 | 0.0 | 0.0 | 0.00 | 0.00 | 0.00 | 73 | 1020.2 |
| 20260830201453 | 70 | 181 | 0.0 | 0.0 | 0.00 | 0.00 | 0.00 | 73 | 1020.4 |
| 20260830200948 | 71 | 154 | 0.9 | 0.9 | 0.00 | 0.00 | 0.00 | 72 | 1020.5 |
| 20260830200443 | 71 | 161 | 0.0 | 0.0 | 0.00 | 0.00 | 0.00 | 72 | 1020.3 |
| 20260830195937 | 71 | 176 | 0.0 | 0.0 | 0.00 | 0.00 | 0.00 | 72 | 1020.4 |
| 20260830195433 | 71 | 196 | 0.9 | 0.9 | 0.00 | 0.00 | 0.00 | 71 | 1020.4 |
| 20260830194930 | 71 | 0 | 1.7 | 1.7 | 0.00 | 0.00 | 0.00 | 71 | 1020.1 |
| 20260830194425 | 71 | 203 | 1.7 | 1.7 | 0.00 | 0.00 | 0.00 | 70 | 1020.1 |
| 20260830193924 | 71 | 196 | 0.9 | 1.7 | 0.00 | 0.00 | 0.00 | 70 | 1020.3 |
| 20260830193423 | 71 | 298 | 2.6 | 2.6 | 0.00 | 0.00 | 0.00 | 70 | 1020.3 |
| 20260830192919 | 72 | 282 | 1.7 | 1.7 | 0.00 | 0.00 | 0.00 | 71 | 1020.3 |
| 20260830192414 | 72 | 311 | 1.7 | 1.7 | 0.00 | 0.00 | 0.00 | 70 | 1020.4 |
| 20260830191914 | 72 | 310 | 4.3 | 6.1 | 0.00 | 0.00 | 0.00 | 69 | 1020.2 |
| 20260830191409 | 73 | 326 | 5.2 | 7.0 | 0.00 | 0.00 | 0.00 | 69 | 1020.3 |
| 20260830190905 | 73 | 261 | 2.6 | 2.6 | 0.00 | 0.00 | 0.00 | 69 | 1020.2 |
| 20260830190400 | 74 | 9 | 2.6 | 2.6 | 0.00 | 0.00 | 0.00 | 69 | 1020.2 |
| 20260830185859 | 74 | 30 | 1.7 | 1.7 | 0.00 | 0.00 | 0.00 | 69 | 1020.2 |
| 20260830185354 | 75 | 275 | 2.6 | 5.2 | 0.00 | 0.00 | 0.00 | 69 | 1020.1 |
| 20260830184849 | 75 | 197 | 0.9 | 0.9 | 0.00 | 0.00 | 0.00 | 71 | 1020.1 |
| 20260830184348 | 75 | 141 | 0.9 | 0.9 | 0.00 | 0.00 | 0.00 | 71 | 1020.3 |
| 20260830183843 | 76 | 169 | 0.9 | 0.9 | 0.00 | 0.00 | 0.00 | 70 | 1020.1 |
| 20260830183343 | 77 | 157 | 0.0 | 0.9 | 0.00 | 0.00 | 0.00 | 69 | 1020.2 |
| 20260830182838 | 77 | 185 | 0.0 | 0.0 | 0.00 | 0.00 | 0.00 | 67 | 1020.0 |
| 20260830182334 | 77 | 154 | 0.0 | 0.9 | 0.00 | 0.00 | 0.00 | 67 | 1020.0 |
| 20260830181830 | 77 | 192 | 0.9 | 0.9 | 0.00 | 0.00 | 0.00 | 67 | 1020.2 |
| 20260830181325 | 77 | 146 | 0.0 | 0.9 | 0.00 | 0.00 | 0.00 | 68 | 1020.1 |
| 20260830180824 | 77 | 200 | 0.9 | 0.9 | 0.00 | 0.00 | 0.00 | 65 | 1020.4 |
| 20260830180319 | 77 | 185 | 0.0 | 0.0 | 0.00 | 0.00 | 0.00 | 65 | 1020.0 |
| 20260830175818 | 76 | 183 | 0.9 | 1.7 | 0.00 | 0.00 | 0.00 | 64 | 1020.2 |
| 20260830175313 | 77 | 299 | 2.6 | 2.6 | 0.00 | 0.00 | 0.00 | 64 | 1020.2 |
| 20260830174809 | 77 | 263 | 1.7 | 1.7 | 0.00 | 0.00 | 0.00 | 65 | 1020.3 |
| 20260830174304 | 78 | 144 | 1.7 | 1.7 | 0.00 | 0.00 | 0.00 | 63 | 1020.3 |
| 20260830173803 | 77 | 189 | 0.9 | 0.9 | 0.00 | 0.00 | 0.00 | 62 | 1020.3 |
| 20260830173259 | 77 | 185 | 0.0 | 0.9 | 0.00 | 0.00 | 0.00 | 62 | 1020.3 |
| 20260830172755 | 77 | 179 | 0.0 | 0.9 | 0.00 | 0.00 | 0.00 | 67 | 1020.4 |